| time (UTC) | temp F | wind direction | speed knots | gust knots | rain 1hr in | rain 24hr in | rain mn in | humidity % | barometer mb |
| 20260905224602 | 81 | 106 | 2.6 | 2.6 | 0.00 | 0.00 | 0.00 | 75 | 1012.1 |
| 20260905223104 | 81 | 106 | 0.9 | 2.6 | 0.00 | 0.00 | 0.00 | 75 | 1011.9 |
| 20260905221603 | 82 | 106 | 0.0 | 9.6 | 0.00 | 0.00 | 0.00 | 75 | 1012.0 |
| 20260905220103 | 82 | 66 | 2.6 | 7.8 | 0.00 | 0.00 | 0.00 | 74 | 1011.8 |
| 20260905215312 | 83 | 125 | 3.5 | 13.9 | 0.00 | 0.00 | 0.00 | 72 | 1012.2 |
| 20260905213104 | 84 | 124 | 8.7 | 17.4 | 0.00 | 0.00 | 0.00 | 73 | 1012.0 |
| 20260905212313 | 87 | 164 | 5.2 | 13.9 | 0.00 | 0.00 | 0.00 | 68 | 1012.3 |
| 20260905210809 | 89 | 69 | 1.7 | 13.9 | 0.00 | 0.00 | 0.00 | 63 | 1011.8 |
| 20260905204602 | 91 | 102 | 2.6 | 6.1 | 0.00 | 0.00 | 0.00 | 58 | 1011.7 |
| 20260905203807 | 92 | 145 | 0.9 | 6.1 | 0.00 | 0.00 | 0.00 | 57 | 1011.7 |
| 20260905201602 | 93 | 145 | 2.6 | 6.1 | 0.00 | 0.00 | 0.00 | 56 | 1011.7 |
| 20260905200105 | 94 | 123 | 4.3 | 9.6 | 0.00 | 0.00 | 0.00 | 55 | 1011.9 |
| 20260905194602 | 93 | 127 | 4.3 | 6.1 | 0.00 | 0.00 | 0.00 | 56 | 1012.0 |
| 20260905193754 | 93 | 113 | 4.3 | 6.1 | 0.00 | 0.00 | 0.00 | 58 | 1012.0 |
| 20260905191602 | 91 | 93 | 1.7 | 6.1 | 0.00 | 0.00 | 0.00 | 59 | 1012.4 |
| 20260905190104 | 91 | 337 | 0.9 | 7.8 | 0.00 | 0.00 | 0.00 | 59 | 1012.6 |
| 20260905184601 | 92 | 221 | 1.7 | 6.1 | 0.00 | 0.00 | 0.00 | 58 | 1012.7 |
| 20260905183103 | 92 | 141 | 1.7 | 7.8 | 0.00 | 0.03 | 0.00 | 57 | 1012.8 |
| 20260905181602 | 91 | 161 | 1.7 | 7.8 | 0.00 | 0.14 | 0.00 | 58 | 1013.2 |
| 20260905180811 | 90 | 202 | 1.7 | 4.3 | 0.00 | 0.14 | 0.00 | 61 | 1013.5 |
| 20260905175318 | 89 | 303 | 1.7 | 4.3 | 0.00 | 0.14 | 0.00 | 65 | 1013.8 |
| 20260905173104 | 88 | 312 | 1.7 | 6.1 | 0.00 | 0.14 | 0.00 | 65 | 1014.0 |
| 20260905171602 | 90 | 173 | 0.0 | 6.1 | 0.00 | 0.14 | 0.00 | 63 | 1014.1 |
| 20260905164602 | 87 | 209 | 0.9 | 2.6 | 0.00 | 0.14 | 0.00 | 67 | 1014.4 |
| 20260905163756 | 88 | 209 | 0.9 | 4.3 | 0.00 | 0.14 | 0.00 | 65 | 1014.5 |
| 20260905161601 | 89 | 165 | 1.7 | 4.3 | 0.00 | 0.14 | 0.00 | 68 | 1014.5 |
| 20260905160813 | 87 | 172 | 1.7 | 2.6 | 0.00 | 0.14 | 0.00 | 72 | 1014.6 |
| 20260905154602 | 86 | 172 | 0.0 | 2.6 | 0.00 | 0.14 | 0.00 | 73 | 1014.6 |
| 20260905153102 | 86 | 172 | 2.6 | 4.3 | 0.00 | 0.14 | 0.00 | 73 | 1014.7 |
| 20260905151603 | 85 | 172 | 1.7 | 4.3 | 0.00 | 0.14 | 0.00 | 76 | 1014.5 |
| 20260905144601 | 84 | 103 | 0.9 | 4.3 | 0.00 | 0.14 | 0.00 | 81 | 1014.5 |
| 20260905143103 | 83 | 103 | 1.7 | 4.3 | 0.00 | 0.14 | 0.00 | 83 | 1014.4 |
| 20260905141602 | 82 | 109 | 0.9 | 2.6 | 0.00 | 0.14 | 0.00 | 86 | 1014.4 |
| 20260905134602 | 79 | 109 | 0.0 | 4.3 | 0.00 | 0.14 | 0.00 | 90 | 1014.4 |
| 20260905133102 | 78 | 109 | 1.7 | 2.6 | 0.00 | 0.14 | 0.00 | 91 | 1014.3 |
| 20260905131603 | 78 | 109 | 0.9 | 4.3 | 0.00 | 0.14 | 0.00 | 91 | 1014.3 |
| 20260905124602 | 77 | 148 | 0.0 | 0.0 | 0.00 | 0.14 | 0.00 | 91 | 1013.9 |
| 20260905123102 | 76 | 148 | 0.0 | 0.0 | 0.00 | 0.14 | 0.00 | 91 | 1013.8 |
| 20260905121602 | 76 | 148 | 0.0 | 0.0 | 0.00 | 0.14 | 0.00 | 91 | 1013.7 |
| 20260905114602 | 76 | 148 | 0.0 | 0.0 | 0.00 | 0.14 | 0.00 | 91 | 1013.4 |
| 20260905113102 | 76 | 148 | 0.0 | 0.0 | 0.00 | 0.14 | 0.00 | 91 | 1013.2 |
| 20260905111602 | 76 | 148 | 0.0 | 2.6 | 0.00 | 0.14 | 0.00 | 90 | 1013.1 |
| 20260905104603 | 76 | 148 | 0.0 | 0.0 | 0.00 | 0.14 | 0.00 | 90 | 1012.8 |
| 20260905103102 | 76 | 148 | 0.0 | 0.0 | 0.00 | 0.14 | 0.00 | 90 | 1012.8 |
| 20260905101602 | 77 | 148 | 0.0 | 0.0 | 0.00 | 0.14 | 0.00 | 90 | 1012.8 |
| 20260905095311 | 77 | 148 | 0.0 | 1.7 | 0.00 | 0.14 | 0.00 | 90 | 1012.8 |
| 20260905093753 | 77 | 148 | 0.0 | 0.0 | 0.00 | 0.14 | 0.00 | 90 | 1012.7 |
| 20260905091602 | 77 | 148 | 0.0 | 0.0 | 0.00 | 0.14 | 0.00 | 90 | 1012.8 |
| 20260905084602 | 77 | 148 | 0.0 | 0.0 | 0.00 | 0.14 | 0.00 | 89 | 1012.7 |
| 20260905083103 | 77 | 148 | 0.0 | 1.7 | 0.00 | 0.14 | 0.00 | 89 | 1012.7 |
| 20260905081603 | 77 | 148 | 0.9 | 1.7 | 0.00 | 0.15 | 0.00 | 89 | 1012.7 |
| 20260905080809 | 77 | 148 | 0.0 | 0.0 | 0.00 | 0.15 | 0.00 | 89 | 1012.6 |
| 20260905075255 | 78 | 148 | 0.0 | 1.7 | 0.00 | 0.16 | 0.00 | 89 | 1012.8 |
| 20260905073103 | 78 | 148 | 0.0 | 1.7 | 0.00 | 0.17 | 0.00 | 88 | 1012.9 |
| 20260905071602 | 78 | 148 | 0.0 | 0.0 | 0.00 | 0.17 | 0.00 | 88 | 1012.9 |
| 20260905071512 | 78 | 148 | 0.0 | 0.0 | 0.00 | 0.17 | 0.00 | 88 | 1013.1 |
| 20260905065948 | 78 | 148 | 0.0 | 0.0 | 0.00 | 0.17 | 0.00 | 87 | 1013.3 |
| 20260905063102 | 78 | 148 | 0.0 | 1.7 | 0.00 | 0.17 | 0.00 | 87 | 1013.3 |
| 20260905061603 | 78 | 148 | 0.0 | 0.0 | 0.00 | 0.17 | 0.00 | 87 | 1013.4 |
| 20260905054602 | 79 | 148 | 0.0 | 0.0 | 0.00 | 0.17 | 0.00 | 86 | 1013.3 |
| 20260905053102 | 79 | 148 | 0.0 | 0.0 | 0.00 | 0.17 | 0.00 | 86 | 1013.5 |
| 20260905051602 | 79 | 148 | 0.0 | 2.6 | 0.00 | 0.17 | 0.00 | 87 | 1013.4 |
| 20260905044602 | 79 | 148 | 0.0 | 0.0 | 0.00 | 0.17 | 0.17 | 87 | 1013.3 |
| 20260905043102 | 79 | 148 | 0.0 | 1.7 | 0.00 | 0.17 | 0.17 | 86 | 1013.3 |
| 20260905041602 | 80 | 148 | 0.0 | 1.7 | 0.00 | 0.17 | 0.17 | 86 | 1013.5 |
| 20260905034602 | 80 | 148 | 0.0 | 1.7 | 0.00 | 0.17 | 0.17 | 84 | 1013.5 |
| 20260905033102 | 80 | 148 | 0.0 | 0.0 | 0.00 | 0.17 | 0.17 | 83 | 1013.6 |
| 20260905031602 | 81 | 148 | 0.0 | 1.7 | 0.00 | 0.17 | 0.17 | 82 | 1013.5 |
| 20260905024602 | 81 | 148 | 0.0 | 0.0 | 0.00 | 0.17 | 0.17 | 82 | 1013.6 |
| 20260905023049 | 81 | 148 | 0.0 | 1.7 | 0.00 | 0.17 | 0.17 | 82 | 1013.4 |
| 20260905021545 | 82 | 148 | 0.0 | 4.3 | 0.00 | 0.17 | 0.17 | 82 | 1013.4 |
| 20260905020732 | 81 | 145 | 0.0 | 1.7 | 0.00 | 0.17 | 0.17 | 81 | 1013.2 |
| 20260905014541 | 82 | 145 | 0.0 | 1.7 | 0.00 | 0.17 | 0.17 | 81 | 1012.9 |
| 20260905013038 | 82 | 145 | 0.0 | 0.0 | 0.00 | 0.17 | 0.17 | 80 | 1012.7 |
| 20260905012234 | 83 | 145 | 0.0 | 0.0 | 0.00 | 0.17 | 0.17 | 79 | 1012.5 |
| 20260905010035 | 83 | 145 | 0.0 | 0.0 | 0.00 | 0.17 | 0.17 | 76 | 1012.5 |
| 20260905005225 | 84 | 145 | 0.0 | 0.0 | 0.00 | 0.17 | 0.17 | 75 | 1012.4 |
| 20260905003032 | 85 | 145 | 0.0 | 1.7 | 0.00 | 0.17 | 0.17 | 73 | 1012.2 |
| 20260905001532 | 85 | 145 | 0.0 | 1.7 | 0.00 | 0.17 | 0.17 | 72 | 1012.3 |
| 20260905000031 | 86 | 145 | 0.0 | 6.1 | 0.00 | 0.17 | 0.17 | 70 | 1012.2 |
| 20260904234531 | 87 | 148 | 2.6 | 6.1 | 0.00 | 0.17 | 0.17 | 69 | 1012.1 |
| 20260904233032 | 87 | 149 | 2.6 | 6.1 | 0.00 | 0.17 | 0.17 | 68 | 1012.2 |
| 20260904232921 | 87 | 164 | 2.6 | 6.1 | 0.00 | 0.17 | 0.17 | 69 | 1012.4 |
| 20260904230029 | 86 | 161 | 2.6 | 9.6 | 0.00 | 0.17 | 0.17 | 70 | 1012.4 |